NATIONAL KEY DEER NWR FL US current weather conditions

sailwx.info

Wind from 121 at 4 knots gusting 11

Air temperature 24.4° C
Dewpoint 22.3° C

Last reported at 2014-Nov-23 04:38 UTC.
Time now 2014-Nov-23 06:02 UTC

Location: N 24°43' W 081°23'.
View on Google Maps.

See reports from other nearby stations

  
Tides and Currents Weather Stations Pressure Air Temp Water Temp Dewpoint Dewpoint Depression Visibility Wind Speed Wind Dir Waves Ship Positions
date/time (UTC)wind fromknots sea level pressurealtimeterstation pressurevisibilityair tempwater tempwave heightnotes
2014-Nov-23 04:38 121 4 gusting 11 24.4
2014-Nov-23 03:38 109 3 gusting 9 23.9
2014-Nov-23 02:38 110 3 gusting 12 23.9
2014-Nov-23 01:38 103 4 gusting 11 23.9
2014-Nov-23 00:38 086 5 gusting 9 23.9
2014-Nov-22 23:38 102 5 gusting 10 24.4
2014-Nov-22 22:38 094 4 gusting 12 24.4
2014-Nov-22 21:38 092 6 gusting 13 25.6
2014-Nov-22 20:38 094 6 gusting 15 25.0
2014-Nov-22 19:38 105 5 gusting 15 26.1
2014-Nov-22 18:38 100 6 gusting 14 27.2
2014-Nov-22 17:38 096 7 gusting 15 27.2
2014-Nov-22 16:38 096 6 gusting 13 27.8
2014-Nov-22 15:38 097 6 gusting 14 25.6
2014-Nov-22 14:38 087 6 gusting 13 26.1
2014-Nov-22 13:38 074 6 gusting 12 24.4
2014-Nov-22 12:38 093 6 gusting 13 23.9
2014-Nov-22 11:38 084 6 gusting 14 23.3
2014-Nov-22 10:38 076 7 gusting 13 23.3
2014-Nov-22 09:38 068 7 gusting 13 22.8
2014-Nov-22 08:38 067 6 gusting 13 22.8
2014-Nov-22 07:38 071 6 gusting 11 22.8
2014-Nov-22 06:38 066 6 gusting 12 22.8
2014-Nov-22 05:38 070 7 gusting 16 22.8
2014-Nov-22 04:38 067 7 gusting 17 22.8
2014-Nov-22 03:38 068 10 gusting 17 22.8
2014-Nov-22 02:38 057 7 gusting 15 22.2
2014-Nov-22 01:38 062 9 gusting 17 22.2
2014-Nov-22 00:38 058 8 gusting 18 22.2
2014-Nov-21 23:38 051 11 gusting 20 22.2
2014-Nov-21 22:38 048 10 gusting 19 22.2
2014-Nov-21 21:38 051 10 gusting 17 22.2
2014-Nov-21 20:38 049 9 gusting 17 22.2
2014-Nov-21 19:38 055 10 gusting 17 22.8
2014-Nov-21 18:38 052 9 gusting 18 22.2
2014-Nov-21 17:38 040 8 gusting 19 23.3
2014-Nov-21 16:38 049 10 gusting 19 22.2
2014-Nov-21 15:38 042 10 gusting 17 22.2
2014-Nov-21 14:38 043 7 gusting 13 21.7
2014-Nov-21 13:38 048 6 gusting 15 21.7
2014-Nov-21 12:38 039 8 gusting 15 21.7
2014-Nov-21 11:38 046 7 gusting 16 21.7
2014-Nov-21 10:38 050 8 gusting 17 21.1
2014-Nov-21 09:38 047 8 gusting 16 21.1
2014-Nov-21 08:38 049 8 gusting 17 21.1
2014-Nov-21 07:38 050 8 gusting 17 21.1
2014-Nov-21 06:38 049 9 gusting 18 21.7